Terug naar catalogus

ATLAS 5 CENTAUR DEB

LostHEO
NORAD 44986·DEBRIS·🇺🇸 United States

Gelanceerd Oct 17, 2018 vanaf Cape Canaveral Space Force Station

Loading…

Volgende Passages (komende 24 uur)

TLE

VerouderdSource: Space-Track

Epoch: Oct 28, 2025, 02:23 UTC

1 44986U 18079BS  25301.09949565 -.00000108  00000-0  00000-0 0  9994
2 44986  12.9791  47.4969 4713652 294.6926  24.0721  1.84074827 39950

Volg ATLAS 5 CENTAUR DEB in realtime met AllMySat

Download on the App Store